This is the latest recevied weather packets stored in our database for station/object PY1LEO-13. If no packets are shown the sender has not sent any weather packets the latest 1 day(s).
| Time | Temp. | Humidity | Pressure | Rain* | Wind** | Luminosity | Snow |
|---|---|---|---|---|---|---|---|
| 1778107968 | 27.78° C | 64% | 1019.3 hPa | - | - | - | - |
| 1778107668 | 27.78° C | 64% | 1019.3 hPa | - | - | - | - |
| 1778106168 | 27.78° C | 64% | 1019.2 hPa | - | - | - | - |
| 1778105568 | 27.78° C | 65% | 1019.2 hPa | - | - | - | - |
| 1778103468 | 28.33° C | 65% | 1018.7 hPa | - | - | - | - |
| 1778102868 | 27.78° C | 66% | 1018.5 hPa | - | - | - | - |
| 1778101968 | 27.22° C | 68% | 1018.4 hPa | - | - | - | - |
| 1778100468 | 27.78° C | 66% | 1018.1 hPa | - | - | - | - |
| 1778100168 | 28.89° C | 62% | 1018.1 hPa | - | - | - | - |
| 1778098968 | 28.89° C | 63% | 1018.1 hPa | - | - | - | - |
| 1778098668 | 28.33° C | 63% | 1018.1 hPa | - | - | - | - |
| 1778097768 | 28.89° C | 61% | 1018 hPa | - | - | - | - |
| 1778097468 | 28.33° C | 62% | 1018 hPa | - | - | - | - |
| 1778096568 | 28.89° C | 59% | 1017.9 hPa | - | - | - | - |
| 1778095616 | 29.44° C | 58% | 1018 hPa | - | - | - | - |
| 1778095016 | 29.44° C | 58% | 1018 hPa | - | - | - | - |
| 1778094416 | 30° C | 55% | 1018 hPa | - | - | - | - |
| 1778094116 | 30.56° C | 53% | 1018 hPa | - | - | - | - |
| 1778093816 | 30° C | 55% | 1018 hPa | - | - | - | - |
| 1778093516 | 29.44° C | 56% | 1018 hPa | - | - | - | - |
| 1778092916 | 30° C | 55% | 1018 hPa | - | - | - | - |
| 1778092616 | 30° C | 54% | 1018 hPa | - | - | - | - |
| 1778092316 | 30.56° C | 52% | 1018 hPa | - | - | - | - |
| 1778092016 | 30° C | 53% | 1017.9 hPa | - | - | - | - |
| 1778091716 | 30.56° C | 51% | 1017.9 hPa | - | - | - | - |
* Rain since midnight (hover to see other rain measurements)
** Current wind speed in m/s (hover to see current wind gust speed)